Weather History for KPKV - July, 2013

Change the Weather History Date:

Wednesday, July 24, 2013

  Actual Average (KVCT) Record (KVCT)
Temperature  
Mean Temperature 83 °F 84 °F  
Max Temperature 92 °F 94 °F 107 °F (1934)
Min Temperature 75 °F 74 °F 64 °F (1915)
Degree Days  
Heating Degree Days 0 0  
Month to date heating degree days 0  
Since 1 June heating degree days 0  
Since 1 July heating degree days 0  
Cooling Degree Days 18 19  
Month to date cooling degree days 451  
Year to date cooling degree days 1618  
Since 1 June cooling degree days 959  
Growing Degree Days 33 (Base 50)    
Moisture  
Dew Point 73 °F    
Average Humidity 74    
Maximum Humidity 92    
Minimum Humidity 47    
Precipitation  
Precipitation 0.00 in 0.11 in 1.97 in (1987)
Month to date precipitation 3.39  
Year to date precipitation 23.23  
Snow  
Snow 0.00 in - - ()
Month to date snowfall  
Since 1 June snowfall  
Since 1 July snowfall  
Snow Depth -    
Sea Level Pressure  
Sea Level Pressure 29.94 in    
Wind  
Wind Speed 7 mph (South)    
Max Wind Speed 16 mph    
Max Gust Speed 18 mph    
Visibility 8 miles    
Events      
T = Trace of Precipitation, MM = Missing Value Source: NWS Daily Summary

Daily Weather History Graph

Daily Weather History Graph

Search for Another Location

Airport or City:

Trip Planner

Search our weather history database for the weather conditions in past years. The results will help you decide how hot, cold, wet, or windy it might be!

Date:

Astronomy

Jul. 24, 2013 Rise Set
Actual Time 6:43 AM CDT 8:22 PM CDT
Civil Twilight 6:17 AM CDT 8:48 PM CDT
Nautical Twilight 5:46 AM CDT 9:19 PM CDT
Astronomical Twilight 5:14 AM CDT 9:51 PM CDT
Moon 9:47 PM CDT (7/24) 8:49 AM CDT (7/24)
Length of Visible Light 14h 30m
Length of Day
13h 38m
Waning Gibbous, 94% of the Moon is Illuminated
Jul 24
Waning Gibbous
Jul 29
Last Quarter
Aug 6
New
Aug 14
First Quarter
Aug 20
Full

Hourly Weather History & Observations

Time (CDT) Temp. Heat Index Dew Point Humidity Pressure Visibility Wind Dir Wind Speed Gust Speed Precip Events Conditions
12:15 AM 77.9 °F - 73.9 °F 88% 29.95 in 7.0 mi South 6.9 mph - N/A   Clear
12:35 AM 77.5 °F - 73.9 °F 89% 29.95 in 7.0 mi South 8.1 mph - N/A   Clear
12:55 AM 77.5 °F - 73.9 °F 89% 29.95 in 7.0 mi SSE 8.1 mph - N/A   Clear
1:15 AM 77.5 °F - 73.9 °F 89% 29.95 in 7.0 mi South 9.2 mph - N/A   Clear
1:35 AM 77.9 °F - 74.1 °F 88% 29.95 in 7.0 mi South 8.1 mph - N/A   Clear
1:55 AM 77.9 °F - 73.9 °F 88% 29.94 in 7.0 mi SSE 6.9 mph - N/A   Clear
2:15 AM 78.1 °F - 73.8 °F 86% 29.93 in 7.0 mi South 6.9 mph - N/A   Clear
2:35 AM 77.9 °F - 73.8 °F 87% 29.93 in 7.0 mi South 6.9 mph - N/A   Clear
2:55 AM 77.9 °F - 73.6 °F 86% 29.92 in 7.0 mi South 6.9 mph - N/A   Clear
3:15 AM 77.9 °F - 73.6 °F 86% 29.92 in 7.0 mi South 6.9 mph - N/A   Clear
3:35 AM 77.5 °F - 73.6 °F 88% 29.93 in 7.0 mi South 5.8 mph - N/A   Clear
3:55 AM 77.7 °F - 73.6 °F 87% 29.93 in 7.0 mi South 5.8 mph - N/A   Clear
4:15 AM 77.4 °F - 73.4 °F 88% 29.93 in 7.0 mi South 4.6 mph - N/A   Scattered Clouds
4:35 AM 77.4 °F - 73.4 °F 88% 29.95 in 7.0 mi Calm Calm - N/A   Scattered Clouds
4:55 AM 77.0 °F - 73.0 °F 88% 29.95 in 7.0 mi Calm Calm - N/A   Scattered Clouds
5:15 AM 76.5 °F - 72.9 °F 89% 29.95 in 7.0 mi Calm Calm - N/A   Scattered Clouds
5:35 AM 76.5 °F - 73.4 °F 90% 29.95 in 7.0 mi Calm Calm - N/A   Scattered Clouds
5:55 AM 76.1 °F - 73.2 °F 91% 29.95 in 7.0 mi Calm Calm - N/A   Clear
6:15 AM 75.6 °F - 73.0 °F 92% 29.95 in 7.0 mi Calm Calm - N/A   Clear
6:35 AM 75.4 °F - 72.9 °F 92% 29.95 in 7.0 mi South 3.5 mph - N/A   Clear
6:55 AM 75.4 °F - 72.9 °F 92% 29.95 in 5.0 mi South 4.6 mph - N/A   Clear
7:15 AM 75.7 °F - 73.4 °F 92% 29.96 in 5.0 mi South 4.6 mph - N/A   Clear
7:35 AM 77.0 °F - 74.3 °F 91% 29.96 in 5.0 mi South 3.5 mph - N/A   Clear
7:55 AM 78.3 °F - 75.2 °F 90% 29.98 in 5.0 mi South 3.5 mph - N/A   Clear
8:15 AM 80.2 °F 85.8 °F 75.9 °F 87% 29.98 in 5.0 mi South 4.6 mph - N/A   Clear
8:35 AM 81.9 °F 89.5 °F 76.6 °F 84% 29.98 in 7.0 mi SSW 5.8 mph - N/A   Clear
8:55 AM 83.5 °F 91.9 °F 75.9 °F 78% 29.98 in 7.0 mi South 10.4 mph - N/A   Scattered Clouds
9:15 AM 84.0 °F 92.2 °F 75.2 °F 75% 29.98 in 7.0 mi SSW 11.5 mph - N/A   Scattered Clouds
9:35 AM 85.5 °F 93.8 °F 74.7 °F 70% 29.98 in 7.0 mi South 12.7 mph - N/A   Scattered Clouds
9:55 AM 86.2 °F 94.2 °F 73.9 °F 67% 29.98 in 7.0 mi South 15.0 mph - N/A   Scattered Clouds
10:15 AM 87.8 °F 96.1 °F 73.9 °F 63% 29.98 in 7.0 mi SSW 11.5 mph - N/A   Scattered Clouds
10:35 AM 88.2 °F 96.0 °F 73.4 °F 61% 29.97 in 10.0 mi SSW 16.1 mph - N/A   Mostly Cloudy
10:55 AM 87.4 °F 94.8 °F 72.9 °F 62% 29.98 in 10.0 mi South 11.5 mph - N/A   Scattered Clouds
11:15 AM 88.9 °F 96.6 °F 73.0 °F 59% 29.99 in 10.0 mi SSW 10.4 mph 16.1 mph N/A   Scattered Clouds
11:35 AM 89.4 °F 97.3 °F 72.9 °F 58% 29.99 in 10.0 mi SSW 13.8 mph 18.4 mph N/A   Scattered Clouds
11:55 AM 89.8 °F 96.5 °F 71.8 °F 55% 29.99 in 10.0 mi SSW 10.4 mph 17.3 mph N/A   Scattered Clouds
12:15 PM 90.7 °F 97.9 °F 72.0 °F 54% 30.00 in 10.0 mi SSW 6.9 mph - N/A   Scattered Clouds
12:35 PM 90.0 °F 96.4 °F 71.4 °F 54% 30.00 in 10.0 mi SSW 9.2 mph 16.1 mph N/A   Scattered Clouds
12:55 PM 90.0 °F 97.4 °F 72.1 °F 56% 29.99 in 10.0 mi SW 11.5 mph - N/A   Scattered Clouds
1:15 PM 91.2 °F 98.5 °F 72.1 °F 53% 29.98 in 10.0 mi SSW 10.4 mph - N/A   Scattered Clouds
1:35 PM 90.7 °F 98.5 °F 72.7 °F 55% 29.97 in 10.0 mi South 10.4 mph - N/A   Scattered Clouds
1:55 PM 91.9 °F 100.1 °F 72.9 °F 53% 29.96 in 10.0 mi South 11.5 mph - N/A   Scattered Clouds
2:15 PM 90.7 °F 97.9 °F 72.1 °F 54% 29.95 in 10.0 mi SSE 10.4 mph - N/A   Scattered Clouds
2:35 PM 90.7 °F 97.9 °F 72.1 °F 54% 29.94 in 10.0 mi SSW 9.2 mph - N/A   Clear
2:55 PM 91.0 °F 98.7 °F 72.5 °F 54% 29.93 in 10.0 mi South 8.1 mph - N/A   Clear
3:15 PM 91.9 °F 99.5 °F 72.0 °F 52% 29.93 in 10.0 mi SSW 6.9 mph - N/A   Clear
3:35 PM 91.0 °F 97.1 °F 70.3 °F 51% 29.93 in 10.0 mi South 6.9 mph - N/A   Clear
3:55 PM 91.0 °F 95.2 °F 68.4 °F 47% 29.93 in 10.0 mi SSW 5.8 mph - N/A   Clear
4:15 PM 90.7 °F 95.4 °F 69.1 °F 49% 29.92 in 10.0 mi SSW 10.4 mph - N/A   Clear
4:35 PM 89.6 °F 94.7 °F 70.0 °F 52% 29.92 in 10.0 mi South 10.4 mph - N/A   Clear
4:55 PM 88.9 °F 94.7 °F 70.7 °F 55% 29.90 in 10.0 mi South 11.5 mph - N/A   Clear
5:15 PM 88.9 °F 96.6 °F 72.7 °F 59% 29.90 in 10.0 mi South 11.5 mph - N/A   Clear
5:35 PM 88.9 °F 97.1 °F 73.6 °F 60% 29.89 in 10.0 mi South 11.5 mph - N/A   Clear
5:55 PM 88.7 °F 96.7 °F 73.0 °F 60% 29.89 in 10.0 mi South 10.4 mph - N/A   Clear
6:15 PM 87.8 °F 94.7 °F 72.3 °F 60% 29.89 in 10.0 mi South 11.5 mph - N/A   Clear
6:35 PM 86.0 °F 92.2 °F 72.1 °F 63% 29.89 in 10.0 mi South 11.5 mph - N/A   Clear
6:55 PM 86.4 °F 93.4 °F 72.9 °F 64% 29.89 in 10.0 mi South 10.4 mph - N/A   Clear
7:15 PM 85.3 °F 92.2 °F 73.2 °F 67% 29.90 in 10.0 mi SSE 9.2 mph - N/A   Clear
7:35 PM 84.2 °F 90.3 °F 72.7 °F 68% 29.90 in 10.0 mi South 11.5 mph - N/A   Clear
7:55 PM 83.1 °F 88.9 °F 72.9 °F 71% 29.90 in 10.0 mi South 6.9 mph - N/A   Clear
8:15 PM 81.7 °F 86.9 °F 73.0 °F 75% 29.91 in 10.0 mi SSE 9.2 mph - N/A   Clear
8:35 PM 80.6 °F 85.4 °F 73.4 °F 79% 29.91 in 10.0 mi SSE 5.8 mph - N/A   Clear
8:55 PM 79.3 °F - 73.4 °F 82% 29.92 in 10.0 mi SSE 4.6 mph - N/A   Clear
9:15 PM 78.4 °F - 73.4 °F 84% 29.93 in 10.0 mi SSE 5.8 mph - N/A   Clear
9:35 PM 78.3 °F - 73.4 °F 85% 29.94 in 10.0 mi SSE 4.6 mph - N/A   Clear
9:55 PM 77.9 °F - 73.4 °F 86% 29.94 in 10.0 mi SSE 3.5 mph - N/A   Clear
10:15 PM 77.9 °F - 73.4 °F 86% 29.95 in 10.0 mi SSE 3.5 mph - N/A   Clear
10:35 PM 77.2 °F - 73.4 °F 88% 29.95 in 7.0 mi SSE 3.5 mph - N/A   Clear
10:55 PM 76.6 °F - 73.4 °F 90% 29.95 in 7.0 mi SSE 5.8 mph - N/A   Clear
11:15 PM 77.0 °F - 73.6 °F 89% 29.96 in 7.0 mi SSE 4.6 mph - N/A   Clear
11:35 PM 76.6 °F - 73.4 °F 90% 29.96 in 7.0 mi SSE 5.8 mph - N/A   Clear
11:55 PM 76.6 °F - 73.2 °F 89% 29.96 in 7.0 mi SSE 4.6 mph - N/A   Clear